TimeEST,TemperatureF,Dew PointF,Humidity,Sea Level PressureIn,VisibilityMPH,Wind Direction,Wind SpeedMPH,Gust SpeedMPH,PrecipitationIn,Events,Conditions,WindDirDegrees,DateUTC
12:54 AM,37.0,27.0,67,30.04,10.0,Calm,Calm,-,N/A,,Clear,0,2012-11-05 05:54:00
1:54 AM,36.0,28.0,73,30.03,10.0,NW,3.5,-,N/A,,Mostly Cloudy,310,2012-11-05 06:54:00
2:54 AM,37.9,28.0,68,30.01,10.0,Calm,Calm,-,N/A,,Overcast,0,2012-11-05 07:54:00
3:54 AM,39.0,28.9,67,30.01,10.0,NW,3.5,-,N/A,,Overcast,310,2012-11-05 08:54:00
4:54 AM,39.9,28.9,65,30.03,10.0,Calm,Calm,-,N/A,,Overcast,0,2012-11-05 09:54:00
5:54 AM,39.9,28.9,65,30.04,10.0,Variable,4.6,-,N/A,,Overcast,0,2012-11-05 10:54:00
7:54 AM,41.0,28.0,60,30.08,10.0,NNW,4.6,-,N/A,,Overcast,340,2012-11-05 12:54:00
8:38 AM,41.0,28.4,61,30.08,10.0,North,6.9,-,N/A,,Overcast,350,2012-11-05 13:38:00
8:54 AM,41.0,28.9,62,30.09,10.0,North,10.4,-,N/A,,Overcast,10,2012-11-05 13:54:00
9:36 AM,41.0,28.4,61,30.08,10.0,NNW,8.1,-,N/A,,Overcast,330,2012-11-05 14:36:00
9:54 AM,41.0,28.0,60,30.09,10.0,North,6.9,18.4,N/A,,Overcast,350,2012-11-05 14:54:00
10:54 AM,42.1,27.0,55,30.09,10.0,NW,6.9,-,N/A,,Overcast,320,2012-11-05 15:54:00
11:54 AM,43.0,27.0,53,30.09,10.0,Variable,6.9,-,N/A,,Overcast,0,2012-11-05 16:54:00
12:54 PM,46.0,25.0,44,30.06,10.0,NNW,8.1,18.4,N/A,,Clear,330,2012-11-05 17:54:00
1:54 PM,46.9,26.1,44,30.05,10.0,NNW,11.5,18.4,N/A,,Clear,340,2012-11-05 18:54:00
2:54 PM,46.9,26.1,44,30.06,10.0,North,10.4,-,N/A,,Clear,360,2012-11-05 19:54:00
3:54 PM,46.0,26.1,46,30.08,10.0,NNW,6.9,-,N/A,,Clear,340,2012-11-05 20:54:00
4:54 PM,43.0,27.0,53,30.09,10.0,North,4.6,-,N/A,,Clear,10,2012-11-05 21:54:00
5:54 PM,41.0,27.0,57,30.11,10.0,Calm,Calm,-,N/A,,Clear,0,2012-11-05 22:54:00
6:54 PM,39.0,27.0,62,30.13,10.0,Calm,Calm,-,N/A,,Clear,0,2012-11-05 23:54:00
7:54 PM,39.0,26.1,60,30.14,10.0,NNW,3.5,-,N/A,,Clear,340,2012-11-06 00:54:00
8:54 PM,37.0,26.1,65,30.16,10.0,NNW,3.5,-,N/A,,Clear,340,2012-11-06 01:54:00
9:54 PM,36.0,26.1,67,30.17,10.0,North,3.5,-,N/A,,Clear,350,2012-11-06 02:54:00
10:54 PM,36.0,25.0,64,30.18,10.0,Calm,Calm,-,N/A,,Clear,0,2012-11-06 03:54:00
11:54 PM,34.0,25.0,70,30.18,10.0,Calm,Calm,-,N/A,,Partly Cloudy,0,2012-11-06 04:54:00